AirNav   BOSE A20 Aviation Headset
 
 591 users online  

16PN Oakdale Army Heliport
Oakdale, Pennsylvania, USA

GOING TO OAKDALE?


FAA INFORMATION EFFECTIVE 26 APRIL 2018

Location

FAA Identifier: 16PN
Lat/Long: 40-23-18.2480N / 080-09-29.2050W
40-23.304133N / 080-09.486750W
40.3884022 / -80.1581125
(estimated)
Elevation: 1265 ft. / 386 m (estimated)
Variation: 07W (1985)
Time zone: UTC -4 (UTC -5 during Standard Time)
Zip code: 15071

Heliport Operations

Heliport use: Private use. Permission required prior to landing
Control tower: no
ARTCC: CLEVELAND CENTER
FSS: ALTOONA FLIGHT SERVICE STATION
Attendance: UNATNDD
Wind indicator: yes
Segmented circle: no

Heliport Communications

WX ASOS at PIT (7 nm NW): PHONE 412-472-0145
WX AWOS-A at 42PN (8 nm NE): PHONE 412-442-2213
WX ASOS at AGC (11 nm E): PHONE 412-466-8968
WX AWOS-3PT at AFJ (16 nm S): 119.175 (724-228-3529)
WX AWOS-3 at FWQ (18 nm SE): 118.475 (724-379-5815)

Nearby radio navigation aids

VOR radial/distance  VOR name  Freq  Var
AGCr330/8.5ALLEGHENY VOR/DME110.0009W
HLGr075/20.3WHEELING VOR/DME112.2007W
EWCr183/26.3ELLWOOD CITY VOR/DME115.8008W
AIRr061/37.5BELLAIRE VOR/DME117.1007W

 
NDB name  Hdg/Dist  Freq  Var  ID
CASTLE172/39.827209WUCP ..- -.-. .--.

Heliport Services

Runway Information

Helipad H1

Dimensions: 100 x 100 ft. / 30 x 30 m
Surface: asphalt, in fair condition
Latitude: 40-23.304133N
Longitude: 080-09.486750W
Elevation: 1265.0 ft.
Traffic pattern: leftleft
Markings: none, in fair condition

Heliport Ownership and Management from official FAA records

Ownership: U.S. Army
Owner: ARMY
CMDR, HQ-C.E. KELLY SUPT FAC
OAKDALE, PA 15071-5001
Phone 412-777-1173
Manager: MIL PHONE ON HELIPAD SIDE OF FENCE; CALL 554 FOR ACCESS THRU FENCE.

Additional Remarks

SECURITY FENCE-L 49 FT N OF HELIPAD; 131 FT RADIO TWR-L 82 FT NW.
APCH/DEP FM SE TO W TO AVOID OVERFLIGHT OF MIL FAC.

Instrument Procedures

There are no published instrument procedures at 16PN.

Some nearby airports with instrument procedures:

KPIT - Pittsburgh International Airport (7 nm NW)
KAGC - Allegheny County Airport (11 nm E)
G05 - Finleyville Airpark (11 nm SE)
KAFJ - Washington County Airport (16 nm S)
KFWQ - Rostraver Airport (18 nm SE)
 
Loc | Ops | Rwys | IFR | FBO | Links
Com | Nav | Svcs | Stats | Notes

AirNav Hotels Sweepstakes
 
Area around 16PN (Oakdale Army Heliport)
 
Road maps at: MapQuest Bing Google
 
Aerial photo
No photo
 
Sectional chart

 
Airport distance calculator
Flying to Oakdale Army Heliport? Find the distance to fly.

From to 16PN

Sunrise and sunset
Times for 24-May-2018
 Local
(UTC-4)
 Zulu
(UTC)
Morning civil twilight05:2609:26
Sunrise05:5809:58
Sunset20:3700:37
Evening civil twilight21:0901:09

Current date and time
Zulu (UTC)  24-May-2018 05:13:00
Local (UTC-4)  24-May-2018 01:13:00
 
METAR
KPIT 
8nm NW 
240451Z 00000KT 10SM FEW250 14/11 A3019 RMK AO2 SLP229 T01440111 402330139
KAGC 
11nm E 
240453Z 32003KT 10SM CLR 18/11 A3019 RMK AO2 SLP224 T01780106 402330133
KAFJ 
17nm S 
240456Z AUTO 00000KT 10SM CLR 12/12 A3023 RMK AO2 SLP236 T01220117
KP53 
18nm SE 
240456Z AUTO 20005KT 14/10 A3012 RMK AO1 SLP201 T01390100 401720061 PNO
TAF
KPIT 
8nm NW 
240257Z 2403/2506 VRB04KT P6SM SKC
KAGC 
11nm E 
231720Z 2318/2418 34005KT P6SM SCT040 FM240800 35002KT 4SM BR SKC FM241200 05003KT P6SM FEW250
NOTAMs
Click for the latest NOTAMs
NOTAMs are issued by the DoD/FAA and will open in a separate window not controlled by AirNav.

 

 
 

Would you like to see your business listed on this page?

 If your business provides an interesting product or service to pilots, flight crews, aircraft, or users of the Oakdale Army Heliport, you should consider listing it here.  To start the listing process, click on the button below
 
Add a business
 

Other Pages about Oakdale Army Heliport

Update a link
 
Copyright © AirNav, LLC. All rights reserved. Privacy Policy  Contact